RYR1SR LEBL-LEMH

Flight info

Callsign RYR1SR
Flight time N/A
Altitude 19000
Route DUNES Q700 SARGO
Aircraft B38M/M-SADE3FGILRWY/SB1

Departure

Time 2026-04-30 15:01
Airport Josep Tarradellas Barcelona-El Prat Airport (LEBL)

Arrival

Time N/A
Airport Menorca Airport (LEMH)
Time Latitude Longitude Altitude Speed Heading
2026-04-30 14:40 41.30047 2.07447 20 ft 0 kts 14°
2026-04-30 14:52 41.30017 2.07441 22 ft 3 kts 24°
2026-04-30 14:52 41.29993 2.07435 20 ft 4 kts 355°
2026-04-30 14:53 41.29950 2.07421 23 ft 4 kts 51°
2026-04-30 14:53 41.29938 2.07392 20 ft 2 kts 66°
2026-04-30 14:54 41.29938 2.07391 20 ft 0 kts 66°
2026-04-30 14:55 41.29952 2.07432 20 ft 7 kts 66°
2026-04-30 14:56 41.29942 2.07603 20 ft 13 kts 66°
2026-04-30 14:56 41.30051 2.07912 20 ft 23 kts 66°
2026-04-30 14:57 41.30001 2.08015 20 ft 15 kts 155°
2026-04-30 14:57 41.29906 2.08066 22 ft 6 kts 160°
2026-04-30 14:58 41.29694 2.08185 20 ft 25 kts 156°
2026-04-30 14:58 41.29529 2.08284 20 ft 27 kts 156°
2026-04-30 14:58 41.29181 2.08438 20 ft 24 kts 197°
2026-04-30 14:59 41.28835 2.08281 20 ft 28 kts 199°
2026-04-30 15:00 41.28534 2.07770 20 ft 26 kts 246°
2026-04-30 15:00 41.28302 2.07513 21 ft 15 kts 168°
2026-04-30 15:01 41.28597 2.08507 24 ft 124 kts 65°
2026-04-30 15:01 41.29000 2.09694 385 ft 147 kts 67°
2026-04-30 15:01 41.29739 2.12351 1805 ft 163 kts 78°
2026-04-30 15:02 41.29894 2.13934 2443 ft 184 kts 84°
2026-04-30 15:02 41.29856 2.15735 3030 ft 205 kts 98°
2026-04-30 15:03 41.29008 2.21359 5689 ft 215 kts 102°
2026-04-30 15:03 41.28397 2.25359 7290 ft 227 kts 103°
2026-04-30 15:04 41.27752 2.29561 8772 ft 237 kts 103°
2026-04-30 15:04 41.25633 2.36145 10163 ft 289 kts 118°
2026-04-30 15:05 41.22770 2.43996 11892 ft 330 kts 117°
2026-04-30 15:06 41.20742 2.49560 13530 ft 340 kts 118°
2026-04-30 15:06 41.18664 2.55255 15018 ft 350 kts 118°
2026-04-30 15:07 41.16513 2.61135 16496 ft 358 kts 117°
2026-04-30 15:07 41.14274 2.67128 17911 ft 366 kts 124°
2026-04-30 15:08 41.11227 2.72534 18962 ft 367 kts 129°
2026-04-30 15:08 41.06341 2.81079 19032 ft 414 kts 129°
2026-04-30 15:09 41.02731 2.87378 19033 ft 443 kts 129°
2026-04-30 15:09 40.98952 2.93957 19048 ft 453 kts 129°
2026-04-30 15:10 40.95129 3.00600 19070 ft 454 kts 129°
2026-04-30 15:11 40.87486 3.13837 19067 ft 455 kts 130°
2026-04-30 15:11 40.84138 3.20979 19074 ft 460 kts 122°
2026-04-30 15:12 40.79378 3.31982 19066 ft 460 kts 122°
2026-04-30 15:13 40.76207 3.39310 19069 ft 460 kts 122°
2026-04-30 15:14 40.69872 3.53893 19070 ft 460 kts 122°
2026-04-30 15:14 40.64952 3.64717 19026 ft 455 kts 130°
2026-04-30 15:16 40.53405 3.77394 16327 ft 419 kts 143°
2026-04-30 15:17 40.44894 3.86672 14653 ft 367 kts 143°
2026-04-30 15:18 40.34801 3.97668 10086 ft 369 kts 142°
2026-04-30 15:19 40.29102 4.03850 8031 ft 341 kts 142°